| time (UTC) | temp F | wind direction | speed MPH | gust MPH | rain 1hr in | rain 24hr in | rain mn in | humidity % | barometer mb |
| 20260906224829 | 60 | 330 | 5.0 | 15.0 | 0.00 | 0.02 | 0.02 | 88 | 1016.1 |
| 20260906224326 | 60 | 291 | 6.0 | 16.0 | 0.00 | 0.02 | 0.02 | 88 | 1016.0 |
| 20260906223822 | 60 | 313 | 6.0 | 12.0 | 0.00 | 0.02 | 0.02 | 88 | 1016.1 |
| 20260906223318 | 60 | 334 | 4.0 | 13.0 | 0.00 | 0.02 | 0.02 | 89 | 1016.0 |
| 20260906222815 | 59 | 326 | 9.0 | 14.0 | 0.00 | 0.02 | 0.02 | 89 | 1016.1 |
| 20260906222314 | 59 | 326 | 8.0 | 13.0 | 0.00 | 0.02 | 0.02 | 89 | 1016.1 |
| 20260906221812 | 59 | 321 | 9.0 | 14.0 | 0.00 | 0.02 | 0.02 | 89 | 1016.0 |
| 20260906221307 | 59 | 307 | 8.0 | 12.0 | 0.00 | 0.02 | 0.02 | 89 | 1016.0 |
| 20260906220803 | 59 | 349 | 9.0 | 11.0 | 0.00 | 0.02 | 0.02 | 88 | 1015.8 |
| 20260906220257 | 59 | 337 | 9.0 | 12.0 | 0.00 | 0.02 | 0.02 | 89 | 1016.2 |
| 20260906215757 | 59 | 342 | 7.0 | 12.0 | 0.00 | 0.02 | 0.02 | 90 | 1016.2 |
| 20260906215257 | 59 | 307 | 7.0 | 12.0 | 0.00 | 0.02 | 0.02 | 89 | 1016.2 |
| 20260906214755 | 59 | 320 | 9.0 | 13.0 | 0.00 | 0.02 | 0.02 | 90 | 1016.3 |
| 20260906214250 | 59 | 326 | 8.0 | 13.0 | 0.00 | 0.02 | 0.02 | 89 | 1016.0 |
| 20260906213749 | 59 | 339 | 7.0 | 13.0 | 0.00 | 0.02 | 0.02 | 89 | 1016.1 |
| 20260906213249 | 59 | 334 | 13.0 | 14.0 | 0.00 | 0.02 | 0.02 | 90 | 1016.2 |
| 20260906212746 | 59 | 340 | 11.0 | 13.0 | 0.00 | 0.02 | 0.02 | 90 | 1016.2 |
| 20260906212242 | 59 | 319 | 9.0 | 12.0 | 0.00 | 0.02 | 0.02 | 90 | 1016.3 |
| 20260906211741 | 59 | 0 | 10.0 | 15.0 | 0.00 | 0.02 | 0.02 | 90 | 1016.1 |
| 20260906211237 | 59 | 344 | 10.0 | 12.0 | 0.00 | 0.02 | 0.02 | 90 | 1016.3 |
| 20260906210732 | 58 | 343 | 11.0 | 12.0 | 0.00 | 0.02 | 0.02 | 91 | 1016.3 |
| 20260906210227 | 58 | 351 | 10.0 | 17.0 | 0.00 | 0.02 | 0.02 | 90 | 1016.2 |
| 20260906205722 | 59 | 332 | 8.0 | 16.0 | 0.00 | 0.02 | 0.02 | 90 | 1016.2 |
| 20260906205219 | 59 | 330 | 9.0 | 17.0 | 0.00 | 0.02 | 0.02 | 90 | 1016.1 |
| 20260906204718 | 59 | 336 | 8.0 | 16.0 | 0.00 | 0.02 | 0.02 | 90 | 1016.1 |
| 20260906204218 | 58 | 16 | 7.0 | 17.0 | 0.00 | 0.02 | 0.02 | 90 | 1016.2 |
| 20260906203718 | 58 | 334 | 6.0 | 16.0 | 0.00 | 0.02 | 0.02 | 90 | 1016.4 |
| 20260906203213 | 59 | 358 | 9.0 | 15.0 | 0.00 | 0.02 | 0.02 | 90 | 1016.2 |
| 20260906202710 | 59 | 319 | 11.0 | 16.0 | 0.00 | 0.02 | 0.02 | 89 | 1016.6 |
| 20260906202208 | 59 | 335 | 8.0 | 15.0 | 0.00 | 0.02 | 0.02 | 89 | 1016.3 |
| 20260906201704 | 59 | 335 | 8.0 | 12.0 | 0.00 | 0.02 | 0.02 | 88 | 1016.6 |
| 20260906201203 | 59 | 2 | 8.0 | 15.0 | 0.00 | 0.02 | 0.02 | 89 | 1016.4 |
| 20260906200659 | 58 | 344 | 11.0 | 16.0 | 0.00 | 0.02 | 0.02 | 89 | 1016.4 |
| 20260906200155 | 59 | 329 | 10.0 | 17.0 | 0.00 | 0.02 | 0.02 | 89 | 1016.6 |
| 20260906195650 | 59 | 333 | 13.0 | 15.0 | 0.00 | 0.02 | 0.02 | 88 | 1016.6 |
| 20260906195147 | 58 | 331 | 9.0 | 18.0 | 0.00 | 0.02 | 0.02 | 88 | 1016.7 |
| 20260906194643 | 59 | 348 | 10.0 | 19.0 | 0.00 | 0.02 | 0.02 | 87 | 1016.4 |
| 20260906194138 | 59 | 345 | 9.0 | 14.0 | 0.00 | 0.02 | 0.02 | 87 | 1016.4 |
| 20260906193632 | 60 | 339 | 12.0 | 14.0 | 0.00 | 0.02 | 0.02 | 86 | 1016.8 |
| 20260906193128 | 59 | 338 | 11.0 | 17.0 | 0.00 | 0.02 | 0.02 | 87 | 1016.8 |
| 20260906192623 | 60 | 15 | 10.0 | 15.0 | 0.00 | 0.02 | 0.02 | 86 | 1016.6 |
| 20260906192122 | 59 | 17 | 15.0 | 20.0 | 0.00 | 0.02 | 0.02 | 86 | 1016.6 |
| 20260906191618 | 59 | 347 | 12.0 | 12.0 | 0.00 | 0.02 | 0.02 | 86 | 1016.4 |
| 20260906191116 | 60 | 329 | 11.0 | 13.0 | 0.00 | 0.02 | 0.02 | 85 | 1016.7 |
| 20260906190611 | 59 | 328 | 11.0 | 14.0 | 0.00 | 0.02 | 0.02 | 85 | 1016.7 |
| 20260906190106 | 60 | 349 | 7.0 | 12.0 | 0.00 | 0.02 | 0.02 | 86 | 1016.4 |
| 20260906185604 | 60 | 20 | 7.0 | 17.0 | 0.00 | 0.02 | 0.02 | 86 | 1016.6 |
| 20260906185104 | 59 | 356 | 11.0 | 14.0 | 0.00 | 0.02 | 0.02 | 85 | 1016.8 |
| 20260906184558 | 59 | 351 | 5.0 | 17.0 | 0.00 | 0.02 | 0.02 | 86 | 1016.6 |
| 20260906184054 | 59 | 8 | 8.0 | 12.0 | 0.00 | 0.02 | 0.02 | 87 | 1017.0 |
| 20260906183550 | 58 | 356 | 9.0 | 15.0 | 0.00 | 0.02 | 0.02 | 87 | 1016.8 |
| 20260906183046 | 58 | 9 | 8.0 | 12.0 | 0.00 | 0.02 | 0.02 | 88 | 1017.0 |
| 20260906182540 | 58 | 5 | 10.0 | 13.0 | 0.00 | 0.02 | 0.02 | 89 | 1017.1 |
| 20260906182037 | 58 | 339 | 11.0 | 13.0 | 0.00 | 0.02 | 0.02 | 89 | 1017.3 |
| 20260906181532 | 57 | 339 | 10.0 | 12.0 | 0.00 | 0.02 | 0.02 | 91 | 1017.3 |
| 20260906181027 | 57 | 348 | 6.0 | 12.0 | 0.00 | 0.02 | 0.02 | 93 | 1017.4 |
| 20260906180522 | 56 | 338 | 8.0 | 12.0 | 0.00 | 0.02 | 0.02 | 92 | 1017.7 |
| 20260906180021 | 57 | 5 | 7.0 | 11.0 | 0.00 | 0.02 | 0.02 | 93 | 1017.3 |
| 20260906175520 | 56 | 2 | 7.0 | 10.0 | 0.00 | 0.02 | 0.02 | 93 | 1017.7 |
| 20260906175014 | 55 | 359 | 7.0 | 11.0 | 0.00 | 0.02 | 0.02 | 94 | 1018.1 |
| 20260906174508 | 55 | 320 | 10.0 | 13.0 | 0.00 | 0.02 | 0.02 | 93 | 1018.3 |
| 20260906174003 | 55 | 295 | 6.0 | 13.0 | 0.00 | 0.02 | 0.02 | 94 | 1018.3 |
| 20260906173458 | 55 | 328 | 6.0 | 13.0 | 0.00 | 0.02 | 0.02 | 94 | 1018.4 |
| 20260906172957 | 55 | 315 | 8.0 | 13.0 | 0.00 | 0.02 | 0.02 | 94 | 1018.4 |
| 20260906172453 | 55 | 308 | 7.0 | 14.0 | 0.00 | 0.02 | 0.02 | 95 | 1018.5 |
| 20260906171949 | 55 | 310 | 15.0 | 16.0 | 0.00 | 0.02 | 0.02 | 95 | 1018.4 |
| 20260906171443 | 55 | 313 | 6.0 | 14.0 | 0.00 | 0.02 | 0.02 | 96 | 1018.8 |
| 20260906170939 | 55 | 295 | 6.0 | 12.0 | 0.00 | 0.02 | 0.02 | 96 | 1018.7 |
| 20260906170435 | 54 | 301 | 6.0 | 14.0 | 0.00 | 0.02 | 0.02 | 97 | 1019.0 |
| 20260906165932 | 54 | 320 | 9.0 | 9.0 | 0.00 | 0.02 | 0.02 | 97 | 1018.7 |
| 20260906165431 | 54 | 317 | 8.0 | 13.0 | 0.00 | 0.02 | 0.02 | 97 | 1018.3 |
| 20260906164926 | 54 | 325 | 8.0 | 11.0 | 0.00 | 0.02 | 0.02 | 97 | 1018.7 |
| 20260906164424 | 54 | 299 | 5.0 | 14.0 | 0.00 | 0.02 | 0.02 | 97 | 1018.5 |
| 20260906163920 | 54 | 332 | 7.0 | 14.0 | 0.00 | 0.02 | 0.02 | 97 | 1018.3 |
| 20260906163411 | 54 | 342 | 9.0 | 18.0 | 0.00 | 0.02 | 0.02 | 97 | 1018.1 |
| 20260906162909 | 54 | 327 | 9.0 | 11.0 | 0.02 | 0.02 | 0.02 | 97 | 1018.4 |
| 20260906162408 | 53 | 328 | 8.0 | 13.0 | 0.02 | 0.02 | 0.02 | 97 | 1018.5 |
| 20260906161903 | 53 | 337 | 8.0 | 14.0 | 0.00 | 0.02 | 0.02 | 97 | 1018.2 |
| 20260906161401 | 53 | 328 | 8.0 | 13.0 | 0.05 | 0.02 | 0.02 | 97 | 1018.5 |
| 20260906160900 | 53 | 326 | 10.0 | 13.0 | 0.09 | 0.02 | 0.02 | 97 | 1018.5 |
| 20260906160354 | 53 | 328 | 11.0 | 14.0 | 0.07 | 0.01 | 0.01 | 96 | 1018.8 |
| 20260906155853 | 53 | 313 | 9.0 | 13.0 | 0.02 | 0.00 | 0.00 | 96 | 1018.9 |
| 20260906155346 | 54 | 293 | 10.0 | 14.0 | 0.00 | 0.00 | 0.00 | 95 | 1018.8 |
| 20260906154838 | 54 | 306 | 15.0 | 19.0 | 0.00 | 0.00 | 0.00 | 95 | 1018.8 |
| 20260906154332 | 54 | 302 | 14.0 | 21.0 | 0.00 | 0.00 | 0.00 | 95 | 1018.9 |
| 20260906153830 | 54 | 298 | 11.0 | 14.0 | 0.00 | 0.00 | 0.00 | 94 | 1019.0 |
| 20260906153324 | 54 | 336 | 8.0 | 16.0 | 0.00 | 0.00 | 0.00 | 93 | 1019.0 |
| 20260906152820 | 54 | 280 | 11.0 | 19.0 | 0.00 | 0.00 | 0.00 | 92 | 1018.9 |
| 20260906152315 | 54 | 287 | 14.0 | 23.0 | 0.00 | 0.00 | 0.00 | 92 | 1019.2 |
| 20260906151814 | 54 | 319 | 9.0 | 18.0 | 0.00 | 0.00 | 0.00 | 92 | 1019.0 |
| 20260906151310 | 55 | 266 | 13.0 | 23.0 | 0.00 | 0.00 | 0.00 | 91 | 1019.2 |
| 20260906150805 | 55 | 299 | 12.0 | 22.0 | 0.00 | 0.00 | 0.00 | 93 | 1019.0 |
| 20260906150301 | 55 | 302 | 18.0 | 25.0 | 0.00 | 0.00 | 0.00 | 94 | 1019.0 |
| 20260906145759 | 56 | 304 | 14.0 | 20.0 | 0.00 | 0.00 | 0.00 | 94 | 1018.7 |
| 20260906145258 | 56 | 326 | 9.0 | 16.0 | 0.00 | 0.00 | 0.00 | 94 | 1019.0 |
| 20260906144753 | 56 | 330 | 10.0 | 14.0 | 0.00 | 0.00 | 0.00 | 95 | 1019.0 |
| 20260906144248 | 56 | 344 | 7.0 | 11.0 | 0.00 | 0.00 | 0.00 | 94 | 1018.9 |
| 20260906143748 | 55 | 327 | 3.0 | 6.0 | 0.00 | 0.00 | 0.00 | 95 | 1018.9 |
| 20260906143245 | 55 | 333 | 6.0 | 6.0 | 0.00 | 0.00 | 0.00 | 95 | 1018.7 |
| 20260906142744 | 55 | 345 | 2.0 | 7.0 | 0.00 | 0.00 | 0.00 | 95 | 1018.7 |
| 20260906142240 | 55 | 331 | 4.0 | 7.0 | 0.00 | 0.00 | 0.00 | 95 | 1018.3 |
| 20260906141738 | 56 | 359 | 5.0 | 9.0 | 0.00 | 0.00 | 0.00 | 95 | 1018.5 |
| 20260906141233 | 56 | 7 | 2.0 | 11.0 | 0.00 | 0.00 | 0.00 | 95 | 1018.8 |
| 20260906140733 | 56 | 303 | 5.0 | 12.0 | 0.00 | 0.00 | 0.00 | 94 | 1018.8 |
| 20260906140228 | 56 | 313 | 6.0 | 11.0 | 0.00 | 0.00 | 0.00 | 95 | 1019.1 |
| 20260906135724 | 56 | 303 | 7.0 | 10.0 | 0.00 | 0.00 | 0.00 | 95 | 1018.7 |
| 20260906135221 | 56 | 306 | 7.0 | 9.0 | 0.00 | 0.00 | 0.00 | 95 | 1018.9 |
| 20260906134716 | 55 | 299 | 7.0 | 8.0 | 0.00 | 0.00 | 0.00 | 96 | 1018.8 |
| 20260906134211 | 55 | 283 | 4.0 | 7.0 | 0.00 | 0.00 | 0.00 | 96 | 1018.5 |
| 20260906133707 | 55 | 330 | 4.0 | 8.0 | 0.00 | 0.00 | 0.00 | 96 | 1018.5 |
| 20260906133202 | 55 | 317 | 7.0 | 10.0 | 0.00 | 0.00 | 0.00 | 96 | 1018.7 |
| 20260906132657 | 55 | 310 | 6.0 | 11.0 | 0.00 | 0.00 | 0.00 | 96 | 1018.7 |
| 20260906132152 | 55 | 335 | 8.0 | 10.0 | 0.00 | 0.00 | 0.00 | 96 | 1018.5 |
| 20260906131647 | 55 | 332 | 10.0 | 13.0 | 0.00 | 0.00 | 0.00 | 96 | 1018.7 |
| 20260906131137 | 55 | 346 | 6.0 | 14.0 | 0.00 | 0.00 | 0.00 | 96 | 1018.9 |
| 20260906130632 | 55 | 22 | 4.0 | 12.0 | 0.00 | 0.00 | 0.00 | 96 | 1018.8 |
| 20260906130127 | 55 | 305 | 10.0 | 13.0 | 0.00 | 0.00 | 0.00 | 96 | 1019.0 |
| 20260906125625 | 55 | 323 | 6.0 | 10.0 | 0.00 | 0.00 | 0.00 | 96 | 1018.8 |
| 20260906125124 | 55 | 333 | 6.0 | 7.0 | 0.00 | 0.00 | 0.00 | 96 | 1018.8 |
| 20260906124620 | 55 | 344 | 7.0 | 9.0 | 0.00 | 0.00 | 0.00 | 96 | 1018.5 |
| 20260906124115 | 55 | 350 | 6.0 | 9.0 | 0.00 | 0.00 | 0.00 | 96 | 1018.8 |
| 20260906123614 | 55 | 53 | 2.0 | 8.0 | 0.00 | 0.00 | 0.00 | 95 | 1018.8 |
| 20260906123109 | 55 | 4 | 4.0 | 9.0 | 0.00 | 0.00 | 0.00 | 95 | 1019.0 |
| 20260906122608 | 55 | 341 | 6.0 | 9.0 | 0.00 | 0.00 | 0.00 | 95 | 1019.3 |
| 20260906122104 | 55 | 299 | 6.0 | 9.0 | 0.00 | 0.00 | 0.00 | 96 | 1019.1 |
| 20260906121600 | 55 | 352 | 7.0 | 9.0 | 0.00 | 0.00 | 0.00 | 96 | 1019.2 |
| 20260906121056 | 55 | 316 | 3.0 | 9.0 | 0.00 | 0.00 | 0.00 | 97 | 1019.2 |
| 20260906120551 | 55 | 1 | 2.0 | 8.0 | 0.00 | 0.00 | 0.00 | 97 | 1019.3 |
| 20260906120049 | 54 | 330 | 6.0 | 9.0 | 0.00 | 0.00 | 0.00 | 97 | 1019.2 |
| 20260906115548 | 54 | 287 | 4.0 | 6.0 | 0.00 | 0.00 | 0.00 | 97 | 1019.7 |
| 20260906115044 | 54 | 298 | 4.0 | 6.0 | 0.00 | 0.00 | 0.00 | 97 | 1019.4 |
| 20260906114538 | 54 | 308 | 6.0 | 9.0 | 0.00 | 0.00 | 0.00 | 97 | 1019.3 |
| 20260906114034 | 54 | 359 | 5.0 | 8.0 | 0.00 | 0.00 | 0.00 | 97 | 1019.2 |
| 20260906113532 | 54 | 328 | 5.0 | 10.0 | 0.00 | 0.00 | 0.00 | 97 | 1019.3 |
| 20260906113028 | 54 | 329 | 4.0 | 9.0 | 0.00 | 0.00 | 0.00 | 97 | 1019.3 |
| 20260906112523 | 54 | 319 | 3.0 | 9.0 | 0.00 | 0.00 | 0.00 | 97 | 1019.2 |
| 20260906112019 | 54 | 324 | 7.0 | 8.0 | 0.00 | 0.00 | 0.00 | 97 | 1019.2 |
| 20260906111519 | 54 | 347 | 5.0 | 6.0 | 0.00 | 0.00 | 0.00 | 96 | 1019.0 |
| 20260906111014 | 54 | 340 | 6.0 | 9.0 | 0.00 | 0.00 | 0.00 | 96 | 1019.1 |
| 20260906110509 | 54 | 342 | 7.0 | 12.0 | 0.00 | 0.00 | 0.00 | 96 | 1018.8 |
| 20260906110007 | 54 | 333 | 8.0 | 12.0 | 0.00 | 0.00 | 0.00 | 96 | 1019.0 |
| 20260906105504 | 54 | 323 | 10.0 | 13.0 | 0.00 | 0.00 | 0.00 | 97 | 1019.2 |
| 20260906104959 | 54 | 308 | 6.0 | 11.0 | 0.00 | 0.00 | 0.00 | 97 | 1019.2 |
| 20260906104457 | 54 | 314 | 9.0 | 12.0 | 0.00 | 0.00 | 0.00 | 97 | 1019.2 |
| 20260906103957 | 54 | 313 | 10.0 | 15.0 | 0.00 | 0.00 | 0.00 | 97 | 1019.3 |
| 20260906103455 | 54 | 314 | 6.0 | 13.0 | 0.00 | 0.00 | 0.00 | 97 | 1019.4 |
| 20260906102950 | 54 | 328 | 10.0 | 14.0 | 0.00 | 0.00 | 0.00 | 96 | 1019.3 |
| 20260906102450 | 55 | 342 | 10.0 | 17.0 | 0.00 | 0.00 | 0.00 | 95 | 1019.3 |
| 20260906101944 | 55 | 2 | 7.0 | 16.0 | 0.00 | 0.00 | 0.00 | 95 | 1019.2 |
| 20260906101440 | 54 | 308 | 10.0 | 14.0 | 0.00 | 0.00 | 0.00 | 97 | 1019.2 |
| 20260906100935 | 54 | 340 | 11.0 | 15.0 | 0.00 | 0.00 | 0.00 | 97 | 1019.2 |
| 20260906100430 | 54 | 19 | 10.0 | 14.0 | 0.00 | 0.00 | 0.00 | 98 | 1019.3 |
| 20260906095930 | 53 | 350 | 7.0 | 12.0 | 0.00 | 0.00 | 0.00 | 98 | 1019.4 |
| 20260906095426 | 53 | 16 | 7.0 | 12.0 | 0.00 | 0.00 | 0.00 | 97 | 1019.5 |
| 20260906094926 | 53 | 353 | 7.0 | 13.0 | 0.00 | 0.00 | 0.00 | 97 | 1019.2 |
| 20260906094420 | 54 | 331 | 11.0 | 14.0 | 0.00 | 0.00 | 0.00 | 97 | 1019.3 |
| 20260906093916 | 54 | 327 | 9.0 | 14.0 | 0.00 | 0.00 | 0.00 | 97 | 1019.3 |
| 20260906093413 | 53 | 328 | 7.0 | 15.0 | 0.00 | 0.00 | 0.00 | 98 | 1020.2 |
| 20260906092907 | 53 | 319 | 9.0 | 12.0 | 0.00 | 0.00 | 0.00 | 98 | 1019.9 |
| 20260906092406 | 53 | 300 | 6.0 | 11.0 | 0.00 | 0.00 | 0.00 | 98 | 1020.2 |
| 20260906091901 | 53 | 302 | 6.0 | 13.0 | 0.00 | 0.00 | 0.00 | 98 | 1020.0 |
| 20260906091357 | 53 | 301 | 5.0 | 13.0 | 0.00 | 0.00 | 0.00 | 98 | 1020.2 |
| 20260906090854 | 53 | 319 | 9.0 | 11.0 | 0.00 | 0.00 | 0.00 | 98 | 1020.1 |
| 20260906090353 | 53 | 318 | 13.0 | 15.0 | 0.00 | 0.00 | 0.00 | 98 | 1020.4 |
| 20260906085848 | 53 | 333 | 8.0 | 11.0 | 0.00 | 0.00 | 0.00 | 98 | 1020.5 |
| 20260906085341 | 53 | 328 | 7.0 | 13.0 | 0.00 | 0.00 | 0.00 | 98 | 1020.2 |
| 20260906084836 | 53 | 318 | 12.0 | 15.0 | 0.00 | 0.00 | 0.00 | 98 | 1020.3 |
| 20260906084330 | 53 | 333 | 12.0 | 14.0 | 0.00 | 0.00 | 0.00 | 98 | 1020.3 |
| 20260906083824 | 53 | 338 | 10.0 | 12.0 | 0.00 | 0.00 | 0.00 | 98 | 1020.4 |
| 20260906083320 | 53 | 356 | 9.0 | 16.0 | 0.00 | 0.00 | 0.00 | 98 | 1020.4 |
| 20260906082815 | 53 | 333 | 10.0 | 16.0 | 0.00 | 0.00 | 0.00 | 97 | 1020.5 |
| 20260906082310 | 53 | 345 | 6.0 | 13.0 | 0.00 | 0.00 | 0.00 | 97 | 1020.4 |
| 20260906081806 | 53 | 332 | 13.0 | 14.0 | 0.00 | 0.00 | 0.00 | 97 | 1020.3 |
| 20260906081302 | 53 | 344 | 6.0 | 12.0 | 0.00 | 0.00 | 0.00 | 97 | 1020.8 |
| 20260906080758 | 53 | 328 | 8.0 | 13.0 | 0.00 | 0.00 | 0.00 | 97 | 1020.4 |
| 20260906080253 | 53 | 330 | 9.0 | 12.0 | 0.00 | 0.00 | 0.00 | 97 | 1020.5 |
| 20260906075747 | 53 | 318 | 9.0 | 15.0 | 0.00 | 0.00 | 0.00 | 96 | 1020.3 |
| 20260906075242 | 54 | 319 | 8.0 | 14.0 | 0.00 | 0.00 | 0.00 | 96 | 1020.3 |
| 20260906074737 | 54 | 320 | 16.0 | 16.0 | 0.00 | 0.00 | 0.00 | 96 | 1020.4 |
| 20260906074236 | 54 | 316 | 10.0 | 17.0 | 0.00 | 0.00 | 0.00 | 95 | 1020.3 |
| 20260906073736 | 54 | 299 | 7.0 | 16.0 | 0.00 | 0.00 | 0.00 | 95 | 1020.5 |
| 20260906073231 | 54 | 317 | 11.0 | 19.0 | 0.00 | 0.00 | 0.00 | 95 | 1020.6 |
| 20260906072727 | 54 | 307 | 10.0 | 17.0 | 0.00 | 0.00 | 0.00 | 95 | 1020.6 |
| 20260906072222 | 54 | 299 | 7.0 | 13.0 | 0.00 | 0.00 | 0.00 | 95 | 1020.8 |
| 20260906071718 | 54 | 318 | 10.0 | 14.0 | 0.00 | 0.00 | 0.00 | 95 | 1020.8 |
| 20260906071218 | 54 | 334 | 8.0 | 13.0 | 0.00 | 0.00 | 0.00 | 95 | 1021.0 |
| 20260906070714 | 54 | 347 | 6.0 | 14.0 | 0.00 | 0.00 | 0.00 | 95 | 1021.1 |
| 20260906070210 | 54 | 310 | 8.0 | 12.0 | 0.00 | 0.00 | 0.00 | 95 | 1021.2 |
| 20260906065704 | 54 | 306 | 6.0 | 15.0 | 0.00 | 0.00 | 0.00 | 94 | 1021.1 |
| 20260906065159 | 55 | 320 | 6.0 | 17.0 | 0.00 | 0.00 | 0.00 | 94 | 1021.1 |
| 20260906064655 | 55 | 287 | 9.0 | 19.0 | 0.00 | 0.00 | 0.00 | 94 | 1021.3 |
| 20260906064150 | 55 | 312 | 6.0 | 16.0 | 0.00 | 0.00 | 0.00 | 93 | 1021.5 |
| 20260906063645 | 55 | 316 | 10.0 | 16.0 | 0.00 | 0.00 | 0.00 | 92 | 1021.2 |
| 20260906063141 | 55 | 328 | 16.0 | 17.0 | 0.00 | 0.00 | 0.00 | 92 | 1021.4 |
| 20260906062637 | 55 | 293 | 9.0 | 15.0 | 0.00 | 0.00 | 0.00 | 93 | 1021.5 |
| 20260906062135 | 55 | 285 | 14.0 | 18.0 | 0.00 | 0.00 | 0.00 | 94 | 1021.3 |
| 20260906061631 | 54 | 278 | 6.0 | 15.0 | 0.00 | 0.00 | 0.00 | 94 | 1021.1 |
| 20260906061131 | 54 | 323 | 7.0 | 11.0 | 0.00 | 0.00 | 0.00 | 94 | 1020.9 |
| 20260906060627 | 54 | 312 | 13.0 | 17.0 | 0.00 | 0.00 | 0.00 | 94 | 1021.0 |
| 20260906060120 | 54 | 307 | 4.0 | 14.0 | 0.00 | 0.00 | 0.00 | 94 | 1020.9 |
| 20260906055615 | 54 | 308 | 8.0 | 11.0 | 0.00 | 0.07 | 0.07 | 95 | 1021.4 |
| 20260906055110 | 54 | 276 | 4.0 | 10.0 | 0.00 | 0.07 | 0.07 | 94 | 1021.1 |
| 20260906054610 | 54 | 327 | 7.0 | 10.0 | 0.00 | 0.07 | 0.07 | 93 | 1021.0 |
| 20260906054100 | 54 | 351 | 9.0 | 14.0 | 0.02 | 0.07 | 0.07 | 93 | 1021.0 |
| 20260906053556 | 54 | 321 | 11.0 | 13.0 | 0.05 | 0.07 | 0.07 | 93 | 1021.0 |
| 20260906053052 | 55 | 315 | 10.0 | 15.0 | 0.02 | 0.07 | 0.07 | 93 | 1020.9 |
| 20260906052547 | 55 | 313 | 12.0 | 14.0 | 0.00 | 0.06 | 0.06 | 91 | 1021.0 |
| 20260906052044 | 55 | 337 | 14.0 | 17.0 | 0.00 | 0.06 | 0.06 | 90 | 1021.0 |
| 20260906051539 | 55 | 281 | 9.0 | 13.0 | 0.00 | 0.06 | 0.06 | 90 | 1022.3 |
| 20260906051034 | 55 | 274 | 10.0 | 11.0 | 0.00 | 0.06 | 0.06 | 91 | 1022.0 |
| 20260906050529 | 55 | 290 | 7.0 | 14.0 | 0.00 | 0.06 | 0.06 | 90 | 1021.3 |
| 20260906050024 | 55 | 288 | 8.0 | 10.0 | 0.00 | 0.06 | 0.06 | 91 | 1021.0 |
| 20260906045522 | 55 | 311 | 6.0 | 10.0 | 0.00 | 0.06 | 0.06 | 91 | 1020.8 |
| 20260906045019 | 55 | 325 | 10.0 | 14.0 | 0.00 | 0.06 | 0.06 | 90 | 1020.5 |
| 20260906044514 | 55 | 314 | 8.0 | 13.0 | 0.00 | 0.06 | 0.06 | 91 | 1020.5 |
| 20260906044010 | 54 | 330 | 7.0 | 13.0 | 0.00 | 0.06 | 0.06 | 92 | 1020.4 |
| 20260906043505 | 55 | 308 | 8.0 | 13.0 | 0.00 | 0.06 | 0.06 | 92 | 1020.6 |
| 20260906043001 | 55 | 291 | 4.0 | 13.0 | 0.00 | 0.06 | 0.06 | 92 | 1020.8 |
| 20260906042500 | 55 | 310 | 8.0 | 13.0 | 0.02 | 0.06 | 0.06 | 92 | 1020.9 |
| 20260906041959 | 55 | 337 | 5.0 | 15.0 | 0.02 | 0.06 | 0.06 | 91 | 1020.4 |
| 20260906041455 | 55 | 326 | 7.0 | 13.0 | 0.05 | 0.06 | 0.06 | 91 | 1020.3 |
| 20260906040955 | 55 | 344 | 11.0 | 18.0 | 0.12 | 0.06 | 0.06 | 90 | 1020.2 |
| 20260906040450 | 55 | 341 | 20.0 | 27.0 | 0.12 | 0.05 | 0.05 | 89 | 1020.2 |
| 20260906035940 | 56 | 342 | 13.0 | 14.0 | 0.02 | 0.03 | 0.03 | 86 | 1021.8 |
| 20260906035435 | 58 | 288 | 8.0 | 11.0 | 0.00 | 0.03 | 0.03 | 78 | 1022.4 |
| 20260906034930 | 58 | 273 | 10.0 | 13.0 | 0.00 | 0.03 | 0.03 | 79 | 1022.2 |
| 20260906034425 | 57 | 286 | 6.0 | 15.0 | 0.00 | 0.03 | 0.03 | 79 | 1021.9 |
| 20260906033920 | 57 | 272 | 7.0 | 13.0 | 0.00 | 0.03 | 0.03 | 80 | 1021.5 |
| 20260906033415 | 57 | 312 | 11.0 | 16.0 | 0.00 | 0.03 | 0.03 | 80 | 1020.5 |
| 20260906032911 | 57 | 318 | 11.0 | 15.0 | 0.00 | 0.03 | 0.03 | 81 | 1020.3 |
| 20260906032407 | 57 | 324 | 11.0 | 14.0 | 0.00 | 0.03 | 0.03 | 81 | 1020.6 |
| 20260906031906 | 57 | 329 | 7.0 | 14.0 | 0.00 | 0.03 | 0.03 | 80 | 1020.6 |
| 20260906031402 | 57 | 333 | 7.0 | 13.0 | 0.00 | 0.03 | 0.03 | 80 | 1020.5 |
| 20260906030852 | 57 | 317 | 9.0 | 17.0 | 0.00 | 0.03 | 0.03 | 80 | 1020.1 |
| 20260906030346 | 56 | 316 | 9.0 | 13.0 | 0.00 | 0.03 | 0.03 | 81 | 1020.1 |
| 20260906025841 | 56 | 327 | 5.0 | 12.0 | 0.00 | 0.03 | 0.03 | 81 | 1020.1 |
| 20260906025335 | 55 | 326 | 8.0 | 10.0 | 0.00 | 0.03 | 0.03 | 81 | 1020.1 |
| 20260906024833 | 55 | 326 | 9.0 | 12.0 | 0.00 | 0.03 | 0.03 | 81 | 1019.8 |
| 20260906024333 | 56 | 311 | 11.0 | 13.0 | 0.00 | 0.03 | 0.03 | 80 | 1019.9 |
| 20260906023829 | 56 | 317 | 6.0 | 13.0 | 0.00 | 0.03 | 0.03 | 80 | 1019.9 |
| 20260906023324 | 56 | 345 | 7.0 | 13.0 | 0.00 | 0.03 | 0.03 | 79 | 1019.7 |
| 20260906022820 | 57 | 337 | 12.0 | 14.0 | 0.00 | 0.03 | 0.03 | 78 | 1019.7 |
| 20260906022314 | 57 | 348 | 11.0 | 11.0 | 0.00 | 0.03 | 0.03 | 77 | 1019.7 |
| 20260906021810 | 57 | 350 | 9.0 | 12.0 | 0.00 | 0.03 | 0.03 | 76 | 1020.0 |
| 20260906021309 | 58 | 350 | 7.0 | 13.0 | 0.00 | 0.03 | 0.03 | 75 | 1019.5 |
| 20260906020804 | 58 | 321 | 8.0 | 13.0 | 0.00 | 0.03 | 0.03 | 74 | 1019.7 |
| 20260906020258 | 59 | 319 | 8.0 | 14.0 | 0.00 | 0.03 | 0.03 | 73 | 1020.0 |
| 20260906015753 | 59 | 340 | 8.0 | 15.0 | 0.00 | 0.03 | 0.03 | 72 | 1019.7 |
| 20260906015251 | 59 | 4 | 10.0 | 16.0 | 0.00 | 0.03 | 0.03 | 72 | 1019.9 |
| 20260906014746 | 60 | 9 | 7.0 | 16.0 | 0.00 | 0.03 | 0.03 | 71 | 1019.4 |
| 20260906014242 | 60 | 340 | 12.0 | 16.0 | 0.00 | 0.03 | 0.03 | 71 | 1019.3 |
| 20260906013738 | 60 | 1 | 8.0 | 16.0 | 0.00 | 0.03 | 0.03 | 71 | 1019.3 |
| 20260906013237 | 60 | 339 | 11.0 | 18.0 | 0.00 | 0.03 | 0.03 | 71 | 1019.5 |
| 20260906012733 | 60 | 20 | 8.0 | 14.0 | 0.00 | 0.03 | 0.03 | 71 | 1019.5 |
| 20260906012227 | 61 | 350 | 11.0 | 20.0 | 0.00 | 0.03 | 0.03 | 70 | 1019.1 |
| 20260906011722 | 61 | 3 | 11.0 | 17.0 | 0.00 | 0.03 | 0.03 | 69 | 1019.0 |
| 20260906011217 | 61 | 15 | 14.0 | 19.0 | 0.00 | 0.03 | 0.03 | 70 | 1019.3 |
| 20260906010713 | 61 | 10 | 14.0 | 21.0 | 0.00 | 0.03 | 0.03 | 69 | 1019.2 |
| 20260906010209 | 62 | 3 | 13.0 | 21.0 | 0.00 | 0.03 | 0.03 | 68 | 1019.4 |
| 20260906005708 | 62 | 330 | 14.0 | 21.0 | 0.00 | 0.03 | 0.03 | 67 | 1019.2 |
| 20260906005203 | 62 | 320 | 12.0 | 18.0 | 0.00 | 0.03 | 0.03 | 67 | 1019.3 |
| 20260906004702 | 62 | 352 | 6.0 | 17.0 | 0.00 | 0.03 | 0.03 | 68 | 1019.5 |
| 20260906004156 | 63 | 327 | 12.0 | 18.0 | 0.00 | 0.03 | 0.03 | 66 | 1019.3 |
| 20260906003646 | 64 | 329 | 16.0 | 19.0 | 0.00 | 0.03 | 0.03 | 65 | 1019.4 |
| 20260906003142 | 64 | 319 | 14.0 | 18.0 | 0.00 | 0.03 | 0.03 | 65 | 1019.2 |
| 20260906002642 | 64 | 350 | 17.0 | 20.0 | 0.00 | 0.03 | 0.03 | 65 | 1019.1 |
| 20260906002136 | 64 | 0 | 8.0 | 17.0 | 0.00 | 0.03 | 0.03 | 63 | 1019.4 |
| 20260906001632 | 64 | 330 | 8.0 | 18.0 | 0.00 | 0.03 | 0.03 | 64 | 1019.4 |
| 20260906001131 | 64 | 339 | 5.0 | 18.0 | 0.00 | 0.03 | 0.03 | 64 | 1019.4 |
| 20260906000627 | 64 | 346 | 11.0 | 20.0 | 0.00 | 0.03 | 0.03 | 64 | 1019.4 |
| 20260906000123 | 65 | 335 | 15.0 | 19.0 | 0.00 | 0.03 | 0.03 | 62 | 1019.4 |
| 20260905235621 | 65 | 315 | 11.0 | 18.0 | 0.00 | 0.03 | 0.03 | 63 | 1019.4 |
| 20260905235117 | 65 | 329 | 10.0 | 17.0 | 0.00 | 0.03 | 0.03 | 62 | 1019.5 |
| 20260905234612 | 65 | 348 | 13.0 | 21.0 | 0.00 | 0.03 | 0.03 | 64 | 1019.4 |
| 20260905234108 | 65 | 332 | 9.0 | 17.0 | 0.00 | 0.03 | 0.03 | 63 | 1019.3 |
| 20260905233607 | 66 | 344 | 10.0 | 17.0 | 0.00 | 0.03 | 0.03 | 62 | 1019.7 |
| 20260905233102 | 65 | 353 | 10.0 | 20.0 | 0.00 | 0.03 | 0.03 | 65 | 1019.3 |
| 20260905232557 | 65 | 356 | 11.0 | 19.0 | 0.00 | 0.03 | 0.03 | 63 | 1019.4 |
| 20260905232053 | 66 | 346 | 17.0 | 21.0 | 0.00 | 0.03 | 0.03 | 61 | 1019.3 |
| 20260905231548 | 65 | 335 | 11.0 | 17.0 | 0.00 | 0.03 | 0.03 | 62 | 1019.3 |
| 20260905231044 | 66 | 5 | 17.0 | 18.0 | 0.00 | 0.03 | 0.03 | 62 | 1019.3 |
| 20260905230543 | 66 | 8 | 12.0 | 17.0 | 0.00 | 0.03 | 0.03 | 61 | 1019.2 |
| 20260905230042 | 66 | 349 | 6.0 | 19.0 | 0.00 | 0.03 | 0.03 | 62 | 1019.1 |
| 20260905225537 | 66 | 358 | 12.0 | 19.0 | 0.00 | 0.03 | 0.03 | 61 | 1019.1 |